Location: Arthez
(43.0833°N, 0.2500°W)
Time: 13:59:57
(UTC+00:00)

MOS 1-B - Pass Details

Date: 23 October 2021
Orbit: 905 x 913 km, 99.4° (Epoch: 08 December)

Event Time Altitude Azimuth Distance (km) Brightness Sun altitude
Rises 17:50:39 0° 165° (SSE) 3,527 7.4 -8.9°
Reaches altitude 10° 17:53:03 10° 166° (SSE) 2,588 6.7 -9.3°
Maximum altitude 17:58:50 85° 255° (WSW) 918 4.5 -10.4°
Drops below altitude 10° 18:04:39 10° 344° (NNW) 2,600 6.9 -11.5°
Sets 18:07:04 0° 345° (NNW) 3,544 7.6 -11.9°
